Weather History for PATA - September, 2012

Change the Weather History Date:

Friday, September 14, 2012

  Actual Average Record
Temperature  
Mean Temperature 38 °F -  
Max Temperature 50 °F 54 °F 68 °F (1965)
Min Temperature 28 °F 34 °F 18 °F (2003)
Degree Days  
Heating Degree Days 27    
Moisture  
Dew Point 31 °F    
Average Humidity 70    
Maximum Humidity 89    
Minimum Humidity 46    
Precipitation  
Precipitation 0.00 in - - ()
Sea Level Pressure  
Sea Level Pressure 29.79 in    
Wind  
Wind Speed 2 mph (NW)    
Max Wind Speed 7 mph    
Max Gust Speed -    
Visibility 10 miles    
Events      
Averages and records for this station are not official NWS values.
T = Trace of Precipitation, MM = Missing Value Source: NWS Daily Summary

Daily Weather History Graph

Daily Weather History Graph

Search for Another Location

Airport or City:

Trip Planner

Search our weather history database for the weather conditions in past years. The results will help you decide how hot, cold, wet, or windy it might be!

Date:

Astronomy

Sep. 14, 2012 Rise Set
Actual Time 7:29 AM AKDT 8:36 PM AKDT
Civil Twilight 6:37 AM AKDT 9:27 PM AKDT
Nautical Twilight 5:32 AM AKDT 10:32 PM AKDT
Astronomical Twilight 4:08 AM AKDT 11:53 PM AKDT
Moon 5:51 AM AKDT (9/14) 7:37 PM AKDT (9/14)
Length of Visible Light 14h 49m
Length of Day
13h 07m
Waning Crescent, 2% of the Moon is Illuminated
Sep 14
Waning Crescent
Sep 15
New
Sep 22
First Quarter
Sep 29
Full
Oct 7
Last Quarter

Hourly Weather History & Observations

Time (AKDT) Temp. Windchill Dew Point Humidity Pressure Visibility Wind Dir Wind Speed Gust Speed Precip Events Conditions
12:52 AM 41.0 °F - 32.0 °F 70% 29.80 in 10.0 mi Calm Calm - N/A   Overcast
1:52 AM 41.0 °F - 32.0 °F 70% 29.80 in 10.0 mi Calm Calm - 0.00 in   Overcast
2:52 AM 39.9 °F 36.7 °F 32.0 °F 73% 29.80 in 10.0 mi NNW 4.6 mph - N/A   Overcast
3:52 AM 39.9 °F 36.7 °F 33.1 °F 77% 29.79 in 10.0 mi North 4.6 mph - N/A   Overcast
4:52 AM 37.0 °F 33.3 °F 32.0 °F 82% 29.79 in 10.0 mi North 4.6 mph - N/A   Overcast
5:52 AM 33.1 °F 30.0 °F 30.0 °F 89% 29.79 in 10.0 mi NW 3.5 mph - N/A   Scattered Clouds
6:52 AM 32.0 °F 28.7 °F 28.9 °F 88% 29.79 in 10.0 mi WNW 3.5 mph - N/A   Scattered Clouds
7:52 AM 28.0 °F - 25.0 °F 88% 29.80 in 10.0 mi Calm Calm - N/A   Scattered Clouds
8:03 AM 28.4 °F 23.3 °F 24.8 °F 86% 29.78 in 10.0 mi North 4.6 mph - N/A   Scattered Clouds
8:52 AM 32.0 °F - 28.0 °F 85% 29.80 in 10.0 mi Calm Calm - N/A   Scattered Clouds
9:52 AM 37.0 °F - 33.1 °F 86% 29.80 in 10.0 mi Calm Calm - N/A   Mostly Cloudy
10:52 AM 39.0 °F - 34.0 °F 82% 29.81 in 10.0 mi Calm Calm - N/A   Mostly Cloudy
11:52 AM 42.1 °F - 34.0 °F 73% 29.81 in 10.0 mi Calm Calm - N/A   Mostly Cloudy
12:52 PM 44.1 °F - 33.1 °F 65% 29.80 in 10.0 mi Calm Calm - N/A   Mostly Cloudy
1:52 PM 46.0 °F 44.8 °F 33.1 °F 61% 29.79 in 9.0 mi WSW 3.5 mph - N/A   Mostly Cloudy
2:52 PM 48.9 °F - 32.0 °F 52% 29.78 in 10.0 mi West 6.9 mph - N/A   Overcast
3:52 PM 48.9 °F - 30.9 °F 50% 29.78 in 10.0 mi SW 6.9 mph - N/A   Overcast
4:52 PM 48.9 °F - 28.9 °F 46% 29.78 in 10.0 mi WSW 5.8 mph - N/A   Overcast
5:52 PM 48.9 °F - 28.9 °F 46% 29.78 in 10.0 mi Calm Calm - N/A   Overcast
6:52 PM 48.0 °F - 30.9 °F 52% 29.78 in 10.0 mi Calm Calm - N/A   Overcast
7:52 PM 46.9 °F - 32.0 °F 56% 29.78 in 10.0 mi Calm Calm - N/A   Overcast
8:52 PM 44.1 °F 41.5 °F 30.9 °F 60% 29.79 in 10.0 mi North 4.6 mph - N/A   Overcast
9:52 PM 42.1 °F - 32.0 °F 67% 29.79 in 10.0 mi Calm Calm - N/A   Overcast
10:52 PM 43.0 °F - 30.9 °F 62% 29.80 in 10.0 mi Calm Calm - N/A   Overcast
11:52 PM 39.9 °F - 32.0 °F 73% 29.81 in 10.0 mi Calm Calm - N/A   Overcast